Weather History for Amritsar, India

Change the Weather History Date:

Sunday, March 31, 2013

  Actual Average Record
Temperature  
Mean Temperature 73 °F -  
Max Temperature 87 °F 92 °F 93 °F (2002)
Min Temperature 59 °F 66 °F 51 °F (2003)
Cooling Degree Days 8    
Growing Degree Days 23 (Base 50)    
Moisture  
Dew Point 61 °F    
Average Humidity 67    
Maximum Humidity 100    
Minimum Humidity 37    
Precipitation  
Precipitation 0.00 in 0.04 in - ()
Sea Level Pressure  
Sea Level Pressure 29.80 in    
Wind  
Wind Speed 2 mph ()    
Max Wind Speed 12 mph    
Max Gust Speed -    
Visibility 2.4 miles    
Events      
Averages and records for this station are not official NWS values.
T = Trace of Precipitation, MM = Missing Value Source: Averaged Metar Reports

Daily Weather History Graph

Daily Weather History Graph

Search for Another Location

Airport:

Trip Planner

Search our weather history database for the weather conditions in past years. The results will help you decide how hot, cold, wet, or windy it might be!

Date:

Astronomy

Mar. 31, 2013 Rise Set
Actual Time 6:20 AM IST 6:49 PM IST
Civil Twilight 5:56 AM IST 7:14 PM IST
Nautical Twilight 5:27 AM IST 7:42 PM IST
Astronomical Twilight 4:58 AM IST 8:12 PM IST
Moon 11:15 PM IST (3/31) 8:58 AM IST (3/31)
Length of Visible Light 13h 17m
Length of Day
12h 28m
Waning Gibbous, 81% of the Moon is Illuminated
Mar 31
Waning Gibbous
Apr 3
Last Quarter
Apr 10
New
Apr 18
First Quarter
Apr 26
Full

Hourly Weather History & Observations

Time (IST) Temp. Heat Index Dew Point Humidity Pressure Visibility Wind Dir Wind Speed Gust Speed Precip Events Conditions
12:00 AM 66.2 °F - 59.0 °F 78% 29.80 in 2.5 mi Calm Calm - N/A   Haze
12:30 AM 66.2 °F - 59.0 °F 78% 29.80 in 1.9 mi Calm Calm - N/A   Haze
1:00 AM 66.2 °F - 59.0 °F 78% 29.80 in 1.9 mi Calm Calm - N/A   Partly Cloudy
1:30 AM 64.4 °F - 59.0 °F 83% 29.80 in 1.9 mi Calm Calm - N/A   Partly Cloudy
2:00 AM 64.4 °F - 59.0 °F 83% 29.80 in 1.9 mi Calm Calm - N/A   Partly Cloudy
2:30 AM 64 °F - 58 °F 77% 29.79 in 1 mi Calm Calm - -   Mist
2:30 AM 64.4 °F - 59.0 °F 83% 29.80 in 0.9 mi Calm Calm - N/A   Partly Cloudy
3:00 AM 64.4 °F - 57.2 °F 77% 29.80 in 0.9 mi Calm Calm - N/A   Partly Cloudy
3:30 AM 62.6 °F - 57.2 °F 82% 29.77 in 0.9 mi Calm Calm - N/A   Partly Cloudy
4:00 AM 62.6 °F - 57.2 °F 82% 29.77 in 0.9 mi Calm Calm - N/A   Partly Cloudy
4:30 AM 62.6 °F - 57.2 °F 82% 29.77 in 0.9 mi Calm Calm - N/A   Partly Cloudy
5:00 AM 60.8 °F - 57.2 °F 88% 29.80 in 0.9 mi Calm Calm - N/A   Partly Cloudy
5:30 AM 62.6 °F - 57.2 °F 82% 29.80 in 0.9 mi Calm Calm - N/A   Partly Cloudy
6:00 AM 60.8 °F - 57.2 °F 88% 29.80 in 0.9 mi Calm Calm - N/A   Partly Cloudy
6:30 AM 60.8 °F - 57.2 °F 88% 29.80 in 0.9 mi Calm Calm - N/A   Partly Cloudy
7:00 AM 60.8 °F - 57.2 °F 88% 29.80 in 0.9 mi Calm Calm - N/A   Partly Cloudy
7:30 AM 64.4 °F - 59.0 °F 83% 29.80 in 0.9 mi Calm Calm - N/A   Partly Cloudy
8:00 AM 66.2 °F - 59.0 °F 78% 29.83 in 0.9 mi Variable 2.3 mph - N/A   Partly Cloudy
8:30 AM 71 °F - 63 °F 69% 29.81 in 1 mi SW 4.6 mph - -   Mist
8:30 AM 69.8 °F - 62.6 °F 78% 29.83 in 0.9 mi SW 4.6 mph - N/A   Partly Cloudy
9:00 AM 73.4 °F - 64.4 °F 73% 29.83 in 1.9 mi WSW 8.1 mph - N/A   Mist
9:30 AM 77.0 °F - 68.0 °F 74% 29.83 in 1.9 mi West 8.1 mph - N/A   Mist
10:00 AM 78.8 °F - 64.4 °F 61% 29.86 in 2.5 mi West 10.4 mph - N/A   Haze
10:30 AM 80.6 °F 81.8 °F 62.6 °F 54% 29.86 in 2.5 mi WNW 10.4 mph - N/A   Haze
11:00 AM 80.6 °F 82.3 °F 64.4 °F 58% 29.86 in 3.1 mi West 9.2 mph - N/A   Haze
11:30 AM 83 °F - 64 °F 43% 29.81 in 2 mi WNW 11.5 mph - -   Haze
11:30 AM 82.4 °F 83.9 °F 64.4 °F 54% 29.86 in 3.1 mi West 11.5 mph - N/A   Haze
12:00 PM 84.2 °F 85.6 °F 64.4 °F 51% 29.83 in 3.7 mi West 10.4 mph - N/A   Haze
12:30 PM 84.2 °F 85.0 °F 62.6 °F 48% 29.83 in 3.7 mi WNW 9.2 mph - N/A   Unknown
1:00 PM 84.2 °F 84.4 °F 60.8 °F 45% 29.83 in 3.7 mi WNW 8.1 mph - N/A   Unknown
1:30 PM 86.0 °F 86.6 °F 62.6 °F 45% 29.83 in 3.7 mi WNW 9.2 mph - N/A   Unknown
2:00 PM 84.2 °F 85.6 °F 64.4 °F 51% 29.80 in 3.7 mi WNW 8.1 mph - N/A   Partly Cloudy
2:30 PM 86 °F - 63 °F 37% 29.77 in 2 mi WNW 6.9 mph - -   Scattered Clouds
2:30 PM 86.0 °F 86.6 °F 62.6 °F 45% 29.80 in 5.0 mi WNW 6.9 mph - N/A   Partly Cloudy
3:00 PM 86.0 °F 86.1 °F 60.8 °F 43% 29.80 in 5.0 mi WNW 8.1 mph - N/A   Partly Cloudy
3:30 PM 86.0 °F 86.1 °F 60.8 °F 43% 29.80 in 5.0 mi Variable 4.6 mph - N/A   Partly Cloudy
4:00 PM 86.0 °F 86.1 °F 60.8 °F 43% 29.77 in 5.0 mi Variable 3.5 mph - N/A   Partly Cloudy
4:30 PM 87.8 °F 87.1 °F 59.0 °F 38% 29.77 in 5.0 mi WNW 3.5 mph - N/A   Partly Cloudy
5:00 PM 86.0 °F 85.4 °F 59.0 °F 40% 29.77 in 5.0 mi Variable 2.3 mph - N/A   Partly Cloudy
5:30 PM 86.0 °F 85.4 °F 59.0 °F 40% 29.77 in 5.0 mi Variable 2.3 mph - N/A   Partly Cloudy
6:00 PM 86.0 °F 86.1 °F 60.8 °F 43% 29.77 in 3.7 mi Calm Calm - N/A   Partly Cloudy
6:30 PM 82.4 °F 82.9 °F 60.8 °F 48% 29.77 in 3.7 mi Calm Calm - N/A   Partly Cloudy
7:00 PM 80.6 °F 81.8 °F 62.6 °F 54% 29.77 in 3.7 mi Calm Calm - N/A   Partly Cloudy
7:30 PM 80.6 °F 81.8 °F 62.6 °F 54% 29.77 in 3.7 mi Calm Calm - N/A   Partly Cloudy
8:30 PM 73 °F - 67 °F 75% 29.78 in 2 mi Calm Calm - -   Haze
8:30 PM 73.4 °F - 66.2 °F 78% 29.80 in 2.5 mi Calm Calm - N/A   Haze
9:00 PM 73.4 °F - 64.4 °F 73% 29.80 in 2.5 mi Calm Calm - N/A   Mist
10:00 PM 71.6 °F - 64.4 °F 78% 29.83 in 1.9 mi Calm Calm - N/A   Mist
10:30 PM 69.8 °F - 64.4 °F 83% 29.83 in 1.9 mi Calm Calm - N/A   Mist
11:00 PM 69.8 °F - 66.2 °F 88% 29.83 in 1.9 mi Calm Calm - N/A   Mist
11:30 PM 68 °F - 68 °F 100% 29.81 in 1 mi Calm Calm - -   Mist
11:30 PM 68.0 °F - 68.0 °F 100% 29.83 in 1.9 mi Calm Calm - N/A   Mist